Tracking 29892 objects as of 21-Nov-2024
HD Live streaming from Space Station
objects crossing your sky now

ONEWEB-0180

Track ONEWEB-0180 now!
10-day predictions
ONEWEB-0180 is classified as:


NORAD ID: 48213
Int'l Code: 2021-031D
Perigee: 1,211.7 km
Apogee: 1,214.2 km
Inclination: 87.9 °
Period: 109.5 minutes
Semi major axis: 7583 km
RCS: Unknown
Launch date: April 25, 2021
Source: United Kingdom (UK)
Launch site: VOSTOCHNY COSMODROME (VOSTO)
Your satellite tracking list
Your tracking list is empty




NASA's NSSDC Master Catalog

Two Line Element Set (TLE):
1 48213U 21031D   24325.22712540  .00001365  00000-0  36460-2 0  9990
2 48213  87.9029  43.8135 0001610  87.8621 272.2693 13.14495151172813
Source of the keplerian elements: AFSPC